Location: Pasadena-CA
(34.1440°N, 118.1100°W)
Time: 02:34:41
(UTC-07:00)

FALCONSAT 3 - Pass Details

Date: 01 July 2022
Orbit: 393 x 398 km, 35.4° (Epoch: 13 August)

Event Time Altitude Azimuth Distance (km) Brightness Sun altitude
Rises 22:43:56 0° 271° (W) 2,327 ? -24.7°
Reaches altitude 10° 22:46:04 10° 274° (W) 1,462 ? -25.0°
Enters shadow 22:47:11 19° 277° (W) 1,023 ? -25.1°
